This demonstration page uses our WeatherBlox Daily Observations layout. Learn more.

Hourly Observations for November 23, 2016

Temp ( °F °C ) Dew Point ( °F °C ) Humidity (%) Winds ( mph kmh ) Pressure ( in mb ) Visibility ( mi km ) Precip ( " mm )
12:54 am 00:54 Cloudy 40 4.4 38 3.3 93 93 NNW 18 30 29.96 1015 10 16.0934 0 0
1:11 am 01:11 Cloudy 40 4.4 37 2.8 89 89 N 17 28 29.97 1015 10 16.0934 0 0
1:54 am 01:54 Cloudy 40 4.4 37 2.8 89 89 N 18 30 29.96 1015 10 16.0934 0 0
2:54 am 02:54 Cloudy 39 3.9 36 2.2 89 89 N 13 20 29.98 1015 10 16.0934 0 0
3:18 am 03:18 Cloudy 39 4 36 2 87 87 NNW 14 22 30 1016 10 16.0934 0 0
3:51 am 03:51 Cloudy 39 4 36 2 87 87 NNW 13 20 30.03 1017 10 16.0934 0 0
3:54 am 03:54 Cloudy 39 3.9 36 2.2 89 89 NNW 16 26 30 1016 10 16.0934 0 0
4:54 am 04:54 Cloudy 39 3.9 35 1.7 86 86 NNW 15 24 30.02 1017 10 16.0934 0 0
5:54 am 05:54 Cloudy 39 3.9 35 1.7 86 86 N 18 30 30.04 1017 10 16.0934 0 0
6:54 am 06:54 Cloudy 39 3.9 35 1.7 86 86 NNW 16 26 30.07 1018 10 16.0934 0 0
7:54 am 07:54 Cloudy 39 3.9 36 2.2 89 89 N 13 20 30.09 1019 8 12.87472 0 0
8:54 am 08:54 Cloudy 40 4.4 36 2.2 86 86 NNW 14 22 30.12 1020 9 14.48406 0 0
9:54 am 09:54 Cloudy 40 4.4 36 2.2 86 86 NNW 16 26 30.14 1021 7 11.26538 0 0
10:35 am 10:35 Cloudy 42 5.6 35 1.7 76 76 NNW 17 28 30.15 1021 10 16.0934 0 0
10:45 am 10:45 Cloudy 42 5.6 35 1.7 76 76 NNW 17 28 30.15 1021 10 16.0934 0 0
10:54 am 10:54 Cloudy 42 5.6 36 2.2 79 79 NNW 17 28 30.14 1021 9 14.48406 0 0
11:54 am 11:54 Cloudy 41 5 34 1.1 76 76 NNW 16 26 30.14 1021 9 14.48406 0 0
12:42 pm 12:42 Cloudy 40 4.4 34 1.1 79 79 N 16 26 30.18 1022 7 11.26538 0 0
12:54 pm 12:54 Cloudy 40 4.4 35 1.7 83 83 NNW 15 24 30.15 1021 7 11.26538 0 0
1:54 pm 13:54 Cloudy 40 4.4 34 1.1 79 79 NNW 15 24 30.15 1021 9 14.48406 0 0
2:54 pm 14:54 Cloudy 39 3.9 34 1.1 82 82 NNW 8 13 30.16 1021 9 14.48406 0 0
3:54 pm 15:54 Cloudy 39 3.9 33 0.6 79 79 NW 14 22 30.16 1022 10 16.0934 0 0
4:07 pm 16:07 Cloudy 39 3.9 33 0.6 79 79 NNW 14 22 30.21 1023 10 16.0934 0 0
4:54 pm 16:54 Cloudy 39 3.9 33 0.6 79 79 NNW 10 17 30.16 1022 10 16.0934 0 0
5:32 pm 17:32 Cloudy 38 3.3 33 0.6 83 83 NNW 10 17 30.21 1023 10 16.0934 0 0
5:54 pm 17:54 Cloudy 38 3.3 33 0.6 83 83 NNW 10 17 30.17 1022 10 16.0934 0 0
6:54 pm 18:54 Cloudy 38 3.3 33 0.6 83 83 NW 9 15 30.19 1022 10 16.0934 0 0
7:54 pm 19:54 Cloudy 37 2.8 33 0.6 86 86 N 6 9 30.2 1023 10 16.0934 0 0
8:54 pm 20:54 Cloudy 37 2.8 33 0.6 86 86 N 9 15 30.2 1023 10 16.0934 0 0
9:54 pm 21:54 Cloudy 37 2.8 32 0 82 82 ENE 3 6 30.2 1023 10 16.0934 0 0
10:54 pm 22:54 Cloudy 37 2.8 33 0.6 86 86 ENE 3 6 30.2 1023 10 16.0934 0 0
11:39 pm 23:39 Cloudy 37 2.8 32 0 82 82 Calm 30.24 1024 10 16.0934 0 0
11:54 pm 23:54 Cloudy 36 2.2 33 0.6 89 89 Calm 30.2 1023 10 16.0934 0 0

Powered by AerisWeather